If you wish to contribute or participate in the discussions about articles you are invited to join SKYbrary as a registered user

 Actions

Anaktuvuk Pass Airport

From SKYbrary Wiki

PAKP
Airport
ICAO: PAKP – IATA: AKP
Summary
Name Anaktuvuk Pass Airport
Region North America
Territory Alaska US.gif
Location Anaktuvuk Pass, Alaska
Serving Anaktuvuk Pass
Elevation 640.69 m
2,102 ft
2,102 ft640.69 m
Type medium airport
Coordinates 68° 8' 0.96" N, 151° 44' 34.80" W
Runways
Designator Length Width Surface ROPS
2/20 1463 m4,799.869 ft
30 m98.425 ft
GRAVEL-G /


METAR
Observation PAKP 250603Z AUTO 21010KT 6SM -SN SCT011 BKN032 OVC047 00/M03 A2983 RMK AO2 P0000 FZRANO
Station Anaktuvuk Pass, Anaktuvuk Pass Airport
Date/Time 25 March 2019 06:03:00
Wind direction 210°
Wind speed 10 kts
Lowest cloud amount scattered clouds
Temperature 0°C
Dew point
Humidity 80%
QNH hPa
Weather condition light snow

Maps

Terrain

Loading map...

Airport Layout

Loading map...


Accidents & Serious Incidents at or in vicinity of PAKP

None on SKYbrary